• In Hungary
  • List of Countries
  • For 7 days
  • Water Temperature
  • Satellite Maps
  • Weather Map
  • News
  • Weather Widgets
  • user-avatar
    Login

    Hourly Weather San Juan del Sur

    Today, 17 December, Sunday

    Time Temperature Precipitation Wind Pressure Humidity
    00:00 +26°C° 0 mm 10 mps 752 mmHg 83%
    01:00 +26°C° 0 mm 10 mps 752 mmHg 83%
    02:00 +26°C° 0 mm 10 mps 752 mmHg 84%
    03:00 +26°C° 0 mm 10 mps 752 mmHg 84%
    04:00 +26°C° 0.1 mm 10 mps 752 mmHg 84%
    05:00 +26°C° 0.1 mm 10 mps 752 mmHg 85%
    06:00 +26°C° 0 mm 9 mps 752 mmHg 85%
    07:00 +27°C° 0.1 mm 9 mps 753 mmHg 83%
    08:00 +28°C° 0.1 mm 9 mps 753 mmHg 80%
    09:00 +28°C° 0.1 mm 9 mps 753 mmHg 77%
    10:00 +29°C° 0.1 mm 9 mps 753 mmHg 74%
    11:00 +31°C° 0.1 mm 9 mps 753 mmHg 70%
    12:00 +32°C° 0.1 mm 9 mps 752 mmHg 67%
    13:00 +32°C° 0.1 mm 9 mps 752 mmHg 66%
    14:00 +32°C° 0.1 mm 9 mps 751 mmHg 66%
    15:00 +32°C° 0.1 mm 9 mps 751 mmHg 65%
    16:00 +31°C° 0.1 mm 8 mps 751 mmHg 69%
    17:00 +29°C° 0.1 mm 8 mps 751 mmHg 73%
    18:00 +28°C° 0.1 mm 7 mps 751 mmHg 77%
    19:00 +28°C° 0.1 mm 8 mps 751 mmHg 79%
    20:00 +28°C° 0.1 mm 8 mps 752 mmHg 81%
    21:00 +27°C° 0.1 mm 9 mps 752 mmHg 83%
    22:00 +27°C° 0.1 mm 9 mps 752 mmHg 84%
    23:00 +27°C° 0.1 mm 9 mps 752 mmHg 85%

    Tomorrow, 18 December, Monday

    Time Temperature Precipitation Wind Pressure Humidity
    00:00 +27°C° 0.1 mm 9 mps 752 mmHg 85%
    01:00 +27°C° 0.1 mm 9 mps 752 mmHg 85%
    02:00 +27°C° 0.1 mm 9 mps 752 mmHg 86%
    03:00 +26°C° 0.1 mm 9 mps 751 mmHg 86%
    04:00 +27°C° 0.1 mm 9 mps 752 mmHg 85%
    05:00 +27°C° 0.1 mm 9 mps 752 mmHg 85%
    06:00 +27°C° 0.1 mm 9 mps 752 mmHg 85%
    07:00 +27°C° 0.2 mm 9 mps 753 mmHg 82%
    08:00 +28°C° 0.2 mm 9 mps 753 mmHg 79%
    09:00 +29°C° 0.2 mm 9 mps 754 mmHg 77%
    10:00 +31°C° 0.1 mm 9 mps 753 mmHg 72%
    11:00 +32°C° 0.1 mm 9 mps 753 mmHg 68%
    12:00 +33°C° 0.1 mm 9 mps 753 mmHg 63%
    13:00 +33°C° 0 mm 9 mps 752 mmHg 61%
    14:00 +33°C° 0 mm 8 mps 751 mmHg 60%
    15:00 +33°C° 0 mm 8 mps 751 mmHg 58%
    16:00 +32°C° 0 mm 8 mps 751 mmHg 64%
    17:00 +31°C° 0 mm 8 mps 751 mmHg 69%
    18:00 +28°C° 0 mm 8 mps 752 mmHg 74%
    19:00 +28°C° 0 mm 8 mps 752 mmHg 78%
    20:00 +27°C° 0 mm 8 mps 753 mmHg 81%
    21:00 +27°C° 0 mm 9 mps 754 mmHg 84%
    22:00 +27°C° 0.1 mm 8 mps 754 mmHg 84%
    23:00 +27°C° 0.1 mm 8 mps 753 mmHg 85%

    Day after tomorrow, 19 December, Tuesday

    Time Temperature Precipitation Wind Pressure Humidity
    00:00 +27°C° 0.1 mm 8 mps 753 mmHg 86%
    01:00 +26°C° 0.1 mm 8 mps 753 mmHg 86%
    02:00 +26°C° 0.1 mm 8 mps 753 mmHg 86%
    03:00 +26°C° 0.1 mm 8 mps 753 mmHg 86%
    04:00 +26°C° 0.1 mm 8 mps 753 mmHg 87%
    05:00 +26°C° 0.1 mm 8 mps 753 mmHg 87%
    06:00 +26°C° 0.1 mm 8 mps 753 mmHg 87%
    07:00 +27°C° 0.1 mm 8 mps 754 mmHg 84%
    08:00 +28°C° 0.1 mm 8 mps 754 mmHg 81%
    09:00 +29°C° 0.1 mm 9 mps 755 mmHg 77%
    10:00 +31°C° 0.1 mm 9 mps 754 mmHg 73%
    11:00 +32°C° 0.1 mm 8 mps 753 mmHg 69%
    12:00 +33°C° 0.1 mm 8 mps 753 mmHg 65%
    13:00 +33°C° 0 mm 8 mps 752 mmHg 64%
    14:00 +33°C° 0 mm 8 mps 751 mmHg 64%
    15:00 +33°C° 0 mm 8 mps 750 mmHg 63%
    16:00 +32°C° 0 mm 8 mps 751 mmHg 67%
    17:00 +29°C° 0 mm 8 mps 751 mmHg 71%
    18:00 +28°C° 0 mm 7 mps 752 mmHg 75%
    19:00 +28°C° 0 mm 7 mps 752 mmHg 78%
    20:00 +27°C° 0 mm 7 mps 753 mmHg 80%
    21:00 +27°C° 0 mm 7 mps 753 mmHg 83%
    22:00 +27°C° 0.1 mm 7 mps 753 mmHg 84%
    23:00 +27°C° 0.1 mm 8 mps 753 mmHg 85%

    20 December, Wednesday

    Time Temperature Precipitation Wind Pressure Humidity
    00:00 +26°C° 0.1 mm 8 mps 753 mmHg 86%
    01:00 +26°C° 0.2 mm 8 mps 753 mmHg 86%
    02:00 +26°C° 0.2 mm 8 mps 753 mmHg 86%
    03:00 +26°C° 0.2 mm 8 mps 752 mmHg 86%
    04:00 +26°C° 0.1 mm 8 mps 752 mmHg 86%
    05:00 +26°C° 0.1 mm 8 mps 753 mmHg 86%
    06:00 +26°C° 0.1 mm 8 mps 753 mmHg 86%
    07:00 +27°C° 0 mm 8 mps 753 mmHg 82%
    08:00 +28°C° 0 mm 8 mps 754 mmHg 78%
    09:00 +29°C° 0 mm 8 mps 754 mmHg 74%
    10:00 +31°C° 0 mm 8 mps 754 mmHg 71%
    11:00 +31°C° 0 mm 8 mps 753 mmHg 69%
    12:00 +32°C° 0 mm 8 mps 752 mmHg 66%
    13:00 +32°C° 0 mm 8 mps 752 mmHg 66%
    14:00 +32°C° 0 mm 8 mps 751 mmHg 67%
    15:00 +32°C° 0 mm 8 mps 750 mmHg 67%
    16:00 +30°C° 0.1 mm 7 mps 751 mmHg 70%
    17:00 +29°C° 0.1 mm 7 mps 751 mmHg 74%
    18:00 +28°C° 0.1 mm 7 mps 751 mmHg 77%
    19:00 +28°C° 0 mm 7 mps 751 mmHg 79%
    20:00 +28°C° 0 mm 8 mps 752 mmHg 80%
    21:00 +27°C° 0 mm 8 mps 752 mmHg 82%
    22:00 +27°C° 0 mm 8 mps 752 mmHg 82%
    23:00 +27°C° 0 mm 8 mps 752 mmHg 82%

    21 December, Thursday

    Time Temperature Precipitation Wind Pressure Humidity
    00:00 +27°C° 0 mm 8 mps 752 mmHg 82%
    01:00 +27°C° 0 mm 8 mps 752 mmHg 83%
    02:00 +27°C° 0 mm 8 mps 751 mmHg 83%
    03:00 +26°C° 0 mm 8 mps 751 mmHg 83%
    04:00 +26°C° 0 mm 8 mps 751 mmHg 84%
    05:00 +26°C° 0 mm 8 mps 752 mmHg 85%
    06:00 +26°C° 0 mm 8 mps 752 mmHg 85%
    07:00 +27°C° 0 mm 8 mps 753 mmHg 81%
    08:00 +28°C° 0 mm 8 mps 753 mmHg 77%
    09:00 +29°C° 0 mm 8 mps 754 mmHg 73%
    10:00 +31°C° 0 mm 8 mps 753 mmHg 69%
    11:00 +32°C° 0 mm 8 mps 752 mmHg 66%
    12:00 +33°C° 0 mm 8 mps 752 mmHg 62%
    13:00 +33°C° 0 mm 8 mps 751 mmHg 62%
    14:00 +33°C° 0 mm 8 mps 751 mmHg 62%
    15:00 +33°C° 0 mm 8 mps 750 mmHg 62%
    16:00 +32°C° 0 mm 7 mps 750 mmHg 65%
    17:00 +30°C° 0 mm 7 mps 751 mmHg 69%
    18:00 +29°C° 0 mm 7 mps 751 mmHg 72%
    19:00 +28°C° 0 mm 7 mps 752 mmHg 76%
    20:00 +28°C° 0 mm 7 mps 752 mmHg 80%
    21:00 +27°C° 0 mm 8 mps 753 mmHg 84%
    22:00 +27°C° 0 mm 8 mps 752 mmHg 85%
    23:00 +27°C° 0 mm 8 mps 752 mmHg 85%

    22 December, Friday

    Time Temperature Precipitation Wind Pressure Humidity
    00:00 +26°C° 0 mm 8 mps 752 mmHg 86%
    01:00 +26°C° 0.1 mm 8 mps 752 mmHg 87%
    02:00 +26°C° 0.1 mm 8 mps 752 mmHg 87%
    03:00 +26°C° 0.1 mm 8 mps 751 mmHg 88%
    04:00 +26°C° 0.1 mm 7 mps 752 mmHg 88%
    05:00 +26°C° 0.1 mm 7 mps 752 mmHg 88%
    06:00 +26°C° 0.1 mm 7 mps 752 mmHg 89%
    07:00 +27°C° 0.1 mm 7 mps 753 mmHg 84%
    08:00 +28°C° 0.1 mm 7 mps 753 mmHg 79%
    09:00 +29°C° 0.1 mm 8 mps 754 mmHg 74%
    10:00 +31°C° 0.1 mm 8 mps 753 mmHg 70%
    11:00 +32°C° 0.1 mm 7 mps 753 mmHg 66%
    12:00 +33°C° 0.1 mm 7 mps 752 mmHg 62%
    13:00 +33°C° 0 mm 7 mps 752 mmHg 62%
    14:00 +33°C° 0 mm 7 mps 751 mmHg 61%
    15:00 +33°C° 0 mm 7 mps 751 mmHg 61%
    16:00 +32°C° 0.1 mm 7 mps 751 mmHg 66%
    17:00 +30°C° 0.1 mm 7 mps 752 mmHg 71%
    18:00 +28°C° 0.1 mm 7 mps 752 mmHg 76%
    19:00 +28°C° 0 mm 7 mps 752 mmHg 77%
    20:00 +28°C° 0 mm 7 mps 753 mmHg 79%
    21:00 +27°C° 0 mm 8 mps 753 mmHg 81%
    22:00 +27°C° 0 mm 8 mps 753 mmHg 83%
    23:00 +27°C° 0 mm 8 mps 753 mmHg 84%
    Show more